{"data":{"norad_id":45573,"intl_designator":"2020-025AU","name":"STARLINK-1321","alt_names":[],"object_type":"PAYLOAD","status":"ACTIVE","operator":null,"country":"US","launch_date":"2020-04-22","launch_site_code":"AFETR","launch_vehicle":null,"mission":null,"orbit_class":"UNKNOWN","rcs_meters":null,"size_class":null,"mass_kg":null,"dimensions":null,"purposes":["comms"],"wikipedia_slug":null,"has_3d_model":false,"image_url":null,"decayed_at":null,"tle_current":{"epoch":"2026-09-20T01:06:17.233056Z","epoch_age_seconds":57452,"freshness":"FRESH","line1":"1 45573U 20025AU  26263.04603279  .00092103  00000+0  43284-3 0  9991","line2":"2 45573  53.0334 183.2595 0005479  91.3829 268.7820 15.82408952355914","mean_motion":15.82408952,"eccentricity":0.0005479,"inclination_deg":53.0334,"raan_deg":183.2595,"arg_perigee_deg":91.3829,"mean_anomaly_deg":268.782,"bstar":0.00043284,"rev_number":35591,"period_min":91.000496311651,"perigee_km":319.9585525607,"apogee_km":327.30234933345,"semimajor_km":6701.7674509471,"source":"CELESTRAK","updated_at":"2026-09-20T09:00:38.448059Z"}}}